Location: Grange Verzio
(44.5000°N, 6.9833°E)
Time: 18:50:01
(UTC+00:00)

Cosmos 2219 Rocket - Pass Details

Date: 28 September 2023
Orbit: 826 x 848 km, 71.0° (Epoch: 08 December)

Event Time Altitude Azimuth Distance (km) Brightness Sun altitude
Rises 04:29:18 0° 327° (NNW) 3,396 5.1 -10.9°
Reaches altitude 10° 04:31:54 10° 319° (NW) 2,461 4.3 -10.4°
Maximum altitude 04:37:01 37° 254° (WSW) 1,295 2.7 -9.5°
Drops below altitude 10° 04:42:08 10° 189° (S) 2,458 4.5 -8.6°
Sets 04:44:44 0° 181° (S) 3,391 5.3 -8.1°
